Time,TemperatureF,DewpointF,PressureIn,WindDirection,WindDirectionDegrees,WindSpeedMPH,WindSpeedGustMPH,Humidity,HourlyPrecipIn,Conditions,Clouds,dailyrainin,SoftwareType,DateUTC
2015-01-26 00:11:00,5.8,1.0,30.09,NW,308,0.0,0.0,82,0.00,,,0.00,weatherlink.com 1.10,2015-01-26 05:11:00,
2015-01-26 00:26:00,5.8,1.0,30.09,NW,308,0.0,0.0,82,0.00,,,0.00,weatherlink.com 1.10,2015-01-26 05:26:00,
2015-01-26 00:41:00,6.2,2.0,30.09,NW,308,0.0,0.0,82,0.00,,,0.00,weatherlink.com 1.10,2015-01-26 05:41:00,
2015-01-26 00:56:00,6.6,2.0,30.09,NNW,335,0.0,1.0,80,0.00,,,0.00,weatherlink.com 1.10,2015-01-26 05:56:00,
2015-01-26 01:11:00,7.1,1.0,30.08,North,355,0.0,1.0,77,0.00,,,0.00,weatherlink.com 1.10,2015-01-26 06:11:00,
2015-01-26 01:26:00,7.8,1.0,30.08,ESE,112,1.0,2.0,75,0.00,,,0.00,weatherlink.com 1.10,2015-01-26 06:26:00,
2015-01-26 01:41:00,8.1,2.0,30.08,East,84,0.0,1.0,75,0.00,,,0.00,weatherlink.com 1.10,2015-01-26 06:41:00,
2015-01-26 01:56:00,8.2,2.0,30.09,SE,127,0.0,2.0,75,0.00,,,0.00,weatherlink.com 1.10,2015-01-26 06:56:00,
2015-01-26 02:11:00,8.1,2.0,30.09,NNE,28,0.0,2.0,75,0.00,,,0.00,weatherlink.com 1.10,2015-01-26 07:11:00,
2015-01-26 02:26:00,7.7,2.0,30.10,NNE,28,0.0,0.0,76,0.00,,,0.00,weatherlink.com 1.10,2015-01-26 07:26:00,
2015-01-26 02:42:00,7.2,1.0,30.11,NNE,30,0.0,0.0,77,0.00,,,0.00,weatherlink.com 1.10,2015-01-26 07:42:00,
2015-01-26 02:57:00,6.6,1.0,30.10,NNE,28,0.0,0.0,77,0.00,,,0.00,weatherlink.com 1.10,2015-01-26 07:57:00,
2015-01-26 03:12:00,5.9,1.0,30.10,NNE,31,0.0,0.0,79,0.00,,,0.00,weatherlink.com 1.10,2015-01-26 08:12:00,
2015-01-26 03:27:00,6.1,2.0,30.10,NE,50,0.0,0.0,81,0.00,,,0.00,weatherlink.com 1.10,2015-01-26 08:27:00,
2015-01-26 03:42:00,7.2,2.0,30.10,ENE,70,0.0,2.0,78,0.00,,,0.00,weatherlink.com 1.10,2015-01-26 08:42:00,
2015-01-26 03:57:00,7.7,2.0,30.10,NE,38,0.0,2.0,76,0.00,,,0.00,weatherlink.com 1.10,2015-01-26 08:57:00,
2015-01-26 04:12:00,7.9,2.0,30.10,ESE,106,0.0,2.0,75,0.00,,,0.00,weatherlink.com 1.10,2015-01-26 09:12:00,
2015-01-26 04:27:00,8.4,1.0,30.10,NE,44,2.0,4.0,73,0.00,,,0.00,weatherlink.com 1.10,2015-01-26 09:27:00,
2015-01-26 04:42:00,8.5,2.0,30.10,ENE,72,1.0,4.0,73,0.00,,,0.00,weatherlink.com 1.10,2015-01-26 09:42:00,
2015-01-26 04:57:00,8.5,2.0,30.10,SE,145,1.0,5.0,73,0.00,,,0.00,weatherlink.com 1.10,2015-01-26 09:57:00,
2015-01-26 05:12:00,8.6,2.0,30.10,ENE,70,2.0,4.0,73,0.00,,,0.00,weatherlink.com 1.10,2015-01-26 10:12:00,
2015-01-26 05:27:00,8.5,2.0,30.10,East,89,1.0,5.0,73,0.00,,,0.00,weatherlink.com 1.10,2015-01-26 10:27:00,
2015-01-26 05:42:00,8.5,2.0,30.09,ENE,73,2.0,6.0,73,0.00,,,0.00,weatherlink.com 1.10,2015-01-26 10:42:00,
2015-01-26 05:57:00,8.4,1.0,30.09,SE,125,1.0,5.0,73,0.00,,,0.00,weatherlink.com 1.10,2015-01-26 10:57:00,
2015-01-26 06:12:00,8.4,1.0,30.09,East,94,1.0,8.0,73,0.00,,,0.00,weatherlink.com 1.10,2015-01-26 11:12:00,
2015-01-26 06:27:00,8.4,1.0,30.10,East,88,2.0,3.0,73,0.00,,,0.00,weatherlink.com 1.10,2015-01-26 11:27:00,
2015-01-26 06:42:00,8.2,1.0,30.10,SSE,160,1.0,5.0,73,0.00,,,0.00,weatherlink.com 1.10,2015-01-26 11:42:00,
2015-01-26 06:57:00,8.1,1.0,30.10,NNW,343,1.0,7.0,74,0.00,,,0.00,weatherlink.com 1.10,2015-01-26 11:57:00,
2015-01-26 07:12:00,8.0,1.0,30.10,SE,127,1.0,4.0,74,0.00,,,0.00,weatherlink.com 1.10,2015-01-26 12:12:00,
2015-01-26 07:27:00,8.0,1.0,30.11,North,360,2.0,5.0,74,0.00,,,0.00,weatherlink.com 1.10,2015-01-26 12:27:00,
2015-01-26 07:42:00,8.1,1.0,30.11,SE,137,2.0,5.0,73,0.00,,,0.00,weatherlink.com 1.10,2015-01-26 12:42:00,
2015-01-26 07:57:00,8.3,1.0,30.11,ENE,78,2.0,6.0,72,0.00,,,0.00,weatherlink.com 1.10,2015-01-26 12:57:00,
2015-01-26 08:12:00,8.5,1.0,30.11,North,359,2.0,8.0,71,0.00,,,0.00,weatherlink.com 1.10,2015-01-26 13:12:00,
2015-01-26 08:27:00,9.1,1.0,30.11,SE,128,1.0,5.0,70,0.00,,,0.00,weatherlink.com 1.10,2015-01-26 13:27:00,
2015-01-26 08:42:00,9.8,1.0,30.12,ENE,63,0.0,5.0,68,0.00,,,0.00,weatherlink.com 1.10,2015-01-26 13:42:00,
2015-01-26 08:57:00,9.8,1.0,30.11,ESE,114,1.0,5.0,68,0.00,,,0.00,weatherlink.com 1.10,2015-01-26 13:57:00,
2015-01-26 09:12:00,9.9,1.0,30.11,East,97,3.0,5.0,68,0.00,,,0.00,weatherlink.com 1.10,2015-01-26 14:12:00,
2015-01-26 09:27:00,10.1,1.0,30.11,ESE,115,1.0,5.0,67,0.00,,,0.00,weatherlink.com 1.10,2015-01-26 14:27:00,
2015-01-26 09:42:00,10.8,2.0,30.11,ENE,71,2.0,5.0,67,0.00,,,0.00,weatherlink.com 1.10,2015-01-26 14:42:00,
2015-01-26 09:57:00,11.7,2.0,30.11,ESE,105,2.0,7.0,66,0.00,,,0.00,weatherlink.com 1.10,2015-01-26 14:57:00,
2015-01-26 10:12:00,12.7,3.0,30.11,SE,129,1.0,4.0,65,0.00,,,0.00,weatherlink.com 1.10,2015-01-26 15:12:00,
2015-01-26 10:27:00,12.6,1.0,30.12,ESE,110,0.0,5.0,61,0.00,,,0.00,weatherlink.com 1.10,2015-01-26 15:27:00,
2015-01-26 10:42:00,12.8,2.0,30.12,ESE,122,1.0,6.0,61,0.00,,,0.00,weatherlink.com 1.10,2015-01-26 15:42:00,
2015-01-26 10:57:00,13.4,2.0,30.11,ENE,76,3.0,3.0,61,0.00,,,0.00,weatherlink.com 1.10,2015-01-26 15:57:00,
2015-01-26 11:12:00,13.7,2.0,30.10,ESE,107,2.0,4.0,61,0.00,,,0.00,weatherlink.com 1.10,2015-01-26 16:12:00,
2015-01-26 11:28:00,14.2,2.0,30.09,ENE,68,1.0,3.0,59,0.00,,,0.00,weatherlink.com 1.10,2015-01-26 16:28:00,
2015-01-26 11:43:00,14.8,3.0,30.09,ESE,107,1.0,6.0,59,0.00,,,0.00,weatherlink.com 1.10,2015-01-26 16:43:00,